Погода в Захедане

Иран     28˚45′42″N   53˚47′16″E
темп.,
°C
ветер,
м/с
пор.,
м/с
влажн.,
%
обл.,
%
осадки,
мм/ч
давл.,
гПа
погр.,
м
16 января, сб
сб1600:30+9˚сз11270 0.0 101622
03:30+8˚сз01270 0.0 101622
06:30+7˚зсз01260 0.0 101622
09:30+14˚з01140 0.0 1017140
12:30+18˚юз22160 0.0 1015642
15:30+18˚юз44210 0.0 10131561
18:30+14˚юз33320 0.0 101430
21:30+11˚юз11390 0.0 101523
17 января, вс
вс1700:30+9˚юз11410 0.0 101522
03:30+8˚зсз11440 0.0 101422
06:30+7˚вюв11450 0.0 101522
09:30+13˚з11290 0.0 1015244
12:30+16˚юз24280 0.0 10131013
15:30+17˚юз99310 0.0 10111511
18:30+14˚ююз510420 0.0 1013249
21:30+11˚юз22510 0.0 101423
18 января, пн
пн1800:30+9˚юз11590 0.0 101522
03:30+8˚зсз11640 0.0 101422
06:30+6˚з01690 0.0 101622
09:30+12˚ююв00480 0.0 1017317
12:30+15˚юз23291 0.0 1015968
15:30+16˚юз44230 0.0 10141299
18:30+12˚ююз23340 0.0 101625
21:30+10˚юз12450 0.0 101722
19 января, вт
вт1900:30+8˚з115232 0.0 101722
03:30+6˚з115332 0.0 101722
06:30+5˚з114991 0.0 101822
09:30+11˚сз112758 0.0 1019233
12:30+15˚юз111735 0.0 1017722
15:30+16˚ююз221321 0.0 1015797
18:30+11˚ююз11250 0.0 101623
21:30+9˚юз11310 0.0 101722
20 января, ср
ср2000:30+7˚зюз00340 0.0 101722
03:30+6˚сз00340 0.0 101722
06:30+5˚сз00350 0.0 101822
09:30+12˚св01200 0.0 1019208
12:30+15˚ююз11150 0.0 1016607
15:30+17˚ю22140 0.0 1014502
18:30+12˚ююв11270 0.0 101623
21:30+11˚ююз11300 0.0 101723